Theta_e
308 307 307 306 305 304 304 304 304 304 304 304 305 307 308 309 313 312 308 312 313 308 308 310 311 308 308 312 310 315 317 320 315 306 304 303 304 308 307 309 307 306 306 303 307 303 302 320 321 317 321 323 322 320
308 307 307 305 305 305 304 305 305 303 304 304 305 306 307 309 312 314 305 314 317 313 308 314 314 314 312 311 311 315 314 320 330 325 319 317 311 310 307 301 312 304 310 307 310 310 318 317 319 327 326 321 319 319
307 307 306 305 305 305 305 305 305 304 303 303 304 305 307 309 311 313 307 310 312 310 309 310 310 313 316 315 316 312 320 322 323 326 326 321 312 312 306 309 310 312 313 313 310 317 316 317 323 327 326 322 323 325
307 306 305 304 305 305 305 305 304 303 303 303 304 305 307 309 312 313 307 311 309 310 303 307 320 316 321 318 317 322 320 324 327 324 321 321 312 317 310 314 315 314 315 316 312 316 324 327 327 327 326 326 327 327
305 305 305 304 304 305 305 303 303 304 303 303 304 305 308 311 313 312 310 311 312 308 303 304 310 315 317 319 320 322 323 324 319 319 320 316 316 318 318 316 312 319 315 314 312 320 321 320 322 327 323 325 327 325
305 305 303 303 304 305 303 303 303 303 303 303 304 306 308 311 312 309 306 312 313 314 306 300 311 311 317 320 316 321 324 324 321 321 320 320 324 319 312 311 314 317 322 320 319 321 320 320 323 324 325 324 327 324
304 303 302 302 302 303 303 303 303 303 303 303 304 306 308 310 310 305 303 310 309 309 307 301 301 309 313 317 317 320 322 320 319 318 319 319 319 317 312 307 318 319 320 321 323 320 315 318 321 326 325 326 324 326
303 302 302 301 301 302 303 302 303 303 303 303 305 307 309 311 309 304 308 310 311 311 311 301 301 305 315 310 309 316 315 318 319 318 321 317 318 318 310 316 319 319 319 318 318 320 318 320 323 323 323 322 321 321
303 303 303 302 301 302 303 303 303 304 303 305 306 307 309 306 304 308 315 314 316 313 303 303 298 300 316 311 313 314 317 310 319 314 316 317 313 309 316 317 319 320 317 316 318 319 322 322 322 322 322 322 321 321
304 303 302 302 302 302 303 303 304 303 303 304 304 304 301 307 315 316 312 308 307 308 308 303 309 301 307 309 310 311 314 309 306 311 317 313 310 316 321 319 322 322 319 318 314 314 317 319 322 320 321 323 322 323
303 303 302 302 302 302 303 303 303 302 304 305 303 303 309 314 310 308 301 299 302 300 303 302 303 302 310 307 306 312 309 311 303 307 309 306 306 313 319 319 321 322 321 319 320 320 322 321 321 322 323 325 325 325
303 302 302 302 302 303 303 303 303 302 302 300 299 302 308 307 303 298 296 300 298 296 303 300 300 302 306 317 312 311 307 311 306 313 308 303 309 318 320 320 320 320 321 321 320 320 323 324 324 324 325 324 323 323
303 303 302 302 303 303 303 303 304 303 303 305 303 301 301 301 289 291 290 294 294 301 302 304 301 304 308 310 308 311 308 304 313 306 304 307 313 317 319 321 319 321 321 321 321 321 325 325 326 326 325 323 322 322
303 303 302 303 303 304 303 303 303 302 301 299 297 294 295 293 295 295 296 296 303 302 302 305 304 303 305 305 308 309 310 310 302 301 302 309 313 316 318 320 317 319 321 321 322 322 325 325 325 324 323 322 322 320
303 302 302 302 303 304 304 303 303 303 300 296 297 290 294 299 301 302 302 302 303 305 307 304 306 307 304 302 306 307 305 302 303 302 307 312 320 321 322 321 320 321 323 322 323 323 323 324 322 321 322 321 321 320
302 302 301 303 304 305 304 303 303 302 300 296 297 295 300 300 299 303 304 305 309 307 306 308 306 303 302 302 300 300 299 299 303 310 316 323 321 318 317 318 319 320 324 320 320 321 321 322 321 321 319 319 319 318
302 299 305 304 304 305 304 299 303 298 296 295 295 301 300 300 301 303 307 308 313 309 305 305 301 300 307 301 299 301 300 306 310 312 318 318 316 315 316 319 320 321 322 321 318 320 321 322 322 320 317 317 317 320
299 303 304 303 303 304 302 299 298 296 293 296 295 299 301 304 302 303 307 310 309 308 308 305 308 303 301 299 300 305 307 313 315 319 320 319 318 317 316 314 322 321 321 322 322 321 321 320 318 318 318 320 319 318
303 302 300 301 301 301 298 298 299 290 295 299 300 301 301 302 305 306 310 312 315 314 310 309 303 301 303 308 310 314 317 317 316 319 321 324 322 320 319 318 317 319 321 321 319 318 319 318 317 318 315 313 310 311
303 303 302 301 300 299 296 298 304 297 295 300 302 301 302 302 304 305 309 309 311 310 306 304 304 307 310 313 315 316 320 322 318 318 318 318 318 317 315 314 320 324 322 319 315 312 317 316 316 315 313 311 310 311
302 302 303 301 300 299 296 296 296 300 302 300 303 304 303 305 305 304 306 309 304 306 304 307 309 313 316 317 319 318 319 319 316 318 315 314 316 315 315 315 316 317 316 314 314 311 312 315 312 312 312 310 309 310
301 302 303 301 297 298 296 301 297 301 300 300 301 303 301 301 302 304 308 304 307 308 309 309 313 314 312 314 317 315 317 319 316 317 312 311 313 312 311 314 315 313 313 314 313 311 311 310 311 312 310 310 309 308
300 300 298 300 294 292 291 304 296 300 295 298 302 299 300 302 305 310 302 303 303 306 307 310 312 316 314 316 316 314 314 316 316 315 318 315 313 313 314 315 316 314 311 311 312 311 310 304 307 310 311 309 309 308
299 294 295 294 293 290 299 296 299 296 298 297 296 295 298 300 300 296 293 296 300 304 306 309 312 311 313 312 310 309 309 311 315 317 316 313 311 313 315 314 312 311 310 310 310 311 310 309 304 308 308 306 305 304
290 291 293 287 294 292 292 292 293 294 292 295 293 294 297 301 292 289 290 295 298 302 304 308 308 309 307 307 309 309 309 309 307 305 307 312 310 310 309 308 307 308 309 307 308 308 307 307 307 306 306 305 303 303
285 292 288 291 292 290 291 289 291 292 292 292 295 298 300 295 290 288 292 297 299 301 302 304 304 303 303 305 305 304 307 310 308 305 307 308 308 307 306 303 303 305 309 309 308 307 307 307 306 306 306 305 296 305
286 289 293 297 294 292 290 292 295 292 291 292 295 295 294 289 289 293 299 302 302 305 307 307 306 306 304 305 306 306 307 309 309 308 309 308 308 308 307 304 303 306 309 308 308 307 306 306 305 305 305 306 306 305
292 296 288 293 292 293 291 293 291 292 294 298 297 291 290 291 292 299 303 307 308 309 309 310 310 307 305 305 305 305 306 308 310 309 308 307 307 307 307 307 306 295 305 304 305 305 304 303 303 303 303 303 302 303
297 300 299 296 297 298 298 298 297 300 303 301 295 292 293 297 301 303 305 308 310 308 305 306 306 307 306 306 305 305 304 303 302 301 300 299 300 301 302 301 302 304 304 303 291 292 298 298 300 301 302 300 299 298
299 304 299 298 297 295 298 301 299 302 303 301 300 299 300 301 304 307 306 306 305 303 304 304 305 304 304 303 302 302 302 301 298 297 296 295 295 297 297 297 298 298 299 298 298 298 290 296 295 298 296 295 293 292
304 302 299 298 297 299 300 303 303 303 302 301 301 297 296 298 301 304 303 304 306 305 303 302 302 302 301 299 299 299 298 299 299 297 296 296 295 295 296 298 298 298 298 297 297 296 295 295 294 293 292 291 290 289
301 299 298 296 297 301 303 301 299 298 298 297 297 299 299 298 295 300 303 306 304 302 296 301 300 300 302 301 299 299 292 298 297 296 295 294 295 296 297 298 298 297 296 296 295 295 293 293 292 291 290 289 289 288
299 299 300 299 298 298 301 300 298 297 298 297 297 299 298 297 293 299 305 306 304 302 303 303 302 302 302 300 299 299 295 297 291 286 287 286 285 287 294 296 296 295 294 292 292 292 291 291 290 289 288 288 287 287
Wind_Speed
14 12 11 8 5 3 1 2 4 8 11 14 13 13 13 15 14 6 8 8 3 4 12 9 9 9 8 5 4 9 9 6 1 1 2 4 3 6 7 9 7 6 7 2 3 7 4 3 6 4 6 5 6 3
13 11 9 7 5 3 3 3 4 7 11 13 13 13 13 14 13 7 5 6 7 7 7 19 20 17 15 15 4 4 5 4 5 4 5 4 3 4 2 1 5 5 2 5 6 7 7 6 4 6 6 6 3 3
14 11 9 7 6 5 5 6 4 8 11 12 13 14 14 14 13 5 5 6 5 4 10 9 9 10 12 16 11 3 2 3 4 2 4 4 2 4 2 3 5 10 7 5 7 8 4 8 7 6 7 6 3 6
13 11 9 8 6 6 7 6 5 8 10 12 13 14 14 14 12 6 4 5 5 5 5 6 7 8 13 9 11 8 8 3 3 2 4 3 2 1 4 4 5 5 6 1 5 14 6 7 7 6 4 5 8 7
12 10 8 7 5 6 6 4 6 9 11 13 13 13 14 15 11 7 7 6 7 3 5 9 18 16 15 11 10 11 7 4 0 4 3 4 3 3 3 3 3 5 9 6 6 13 5 3 2 2 6 6 8 5
11 9 8 6 4 5 5 5 7 9 12 12 13 14 15 15 9 5 4 4 7 3 4 5 6 9 10 7 9 8 5 4 3 3 4 4 3 2 1 1 6 9 16 3 6 6 5 5 8 8 8 6 7 5
10 9 7 4 3 3 4 6 8 11 14 13 13 15 15 13 5 6 4 4 8 4 4 5 5 7 12 7 4 3 4 4 4 4 4 3 4 1 0 1 6 4 5 6 9 9 5 1 3 7 6 8 8 9
10 8 6 4 1 3 5 5 8 12 13 14 13 15 15 11 9 7 7 12 4 4 4 4 6 4 7 6 5 5 5 4 4 5 3 3 3 3 4 7 4 6 6 2 4 7 8 5 4 3 9 9 9 8
9 7 5 2 2 3 5 7 9 12 13 13 15 17 5 4 4 5 11 7 4 2 4 4 3 5 3 8 4 3 5 4 5 7 6 3 4 6 8 10 7 7 2 3 2 6 5 8 9 8 10 9 9 6
8 6 4 3 3 4 6 8 10 13 15 14 6 4 5 6 6 6 2 4 4 4 5 5 4 8 6 4 3 3 4 7 5 7 3 10 10 10 9 8 6 8 6 4 4 2 6 5 6 8 9 8 7 6
6 5 4 4 5 6 6 8 9 13 8 3 4 3 6 4 4 4 5 6 6 6 6 6 10 10 7 5 5 5 5 4 6 7 5 7 10 10 10 10 9 8 8 9 8 7 8 10 9 9 8 8 7 7
6 5 4 4 5 6 7 7 7 4 3 6 6 7 5 4 5 6 6 6 7 9 3 11 12 10 4 4 3 4 3 1 5 2 2 11 8 9 8 8 9 8 10 9 8 8 8 11 9 9 9 8 7 5
6 5 5 6 6 7 6 7 7 8 11 4 5 5 3 5 4 7 11 6 6 5 8 7 6 5 4 3 5 4 3 4 4 2 4 4 4 6 6 7 7 7 9 8 8 7 10 12 12 10 9 7 8 7
6 6 6 7 7 7 6 7 8 5 2 4 4 7 6 7 6 8 7 10 5 9 8 5 4 6 4 3 4 5 5 3 4 4 5 4 9 9 11 8 6 9 10 10 9 6 16 15 11 10 8 6 7 6
6 6 8 10 11 9 7 7 6 2 3 4 5 5 10 10 9 6 11 8 10 10 5 5 5 4 4 5 4 5 8 9 10 7 5 4 3 5 7 9 7 6 9 8 5 12 13 12 11 6 8 7 7 6
5 7 8 12 10 9 8 8 3 1 3 3 6 7 8 8 8 7 7 8 9 7 7 4 0 5 8 5 7 8 6 5 3 0 3 4 7 6 3 7 11 19 8 15 18 18 18 11 10 10 6 7 7 6
5 3 3 8 8 6 8 3 3 5 5 5 6 7 10 10 7 6 8 6 10 7 4 4 7 5 4 7 17 11 10 4 4 4 4 4 2 1 4 10 15 14 20 14 14 7 7 7 8 8 7 5 3 5
3 5 6 2 3 5 4 4 3 3 6 8 7 8 8 6 5 5 5 3 5 6 6 5 4 5 4 4 7 5 8 4 6 7 6 6 5 4 5 10 13 12 12 21 10 13 7 8 8 6 7 7 3 3
2 4 3 5 5 3 4 6 3 4 8 8 8 10 9 8 6 8 4 2 2 3 5 3 5 4 4 3 8 11 10 7 6 2 1 4 2 6 12 11 7 3 18 8 8 5 5 7 6 5 5 6 3 3
11 5 5 5 4 4 4 3 4 4 6 4 7 10 8 6 5 5 4 4 3 2 3 3 3 6 4 3 6 10 9 7 6 7 6 7 8 12 21 19 18 20 9 11 7 8 8 8 5 5 5 5 4 2
6 10 10 6 3 5 3 3 4 4 4 5 7 6 4 5 5 7 2 2 6 4 3 2 6 8 10 7 4 7 7 5 6 3 4 5 4 8 11 17 14 11 8 8 7 6 9 6 4 5 5 5 4 5
2 9 2 4 4 6 5 5 4 5 4 6 6 4 4 4 6 6 3 3 2 4 3 2 3 4 7 8 4 7 5 5 8 6 6 4 5 4 9 14 4 9 9 3 4 7 6 4 4 4 3 3 6 4
4 2 3 6 5 5 6 3 5 4 4 3 3 3 3 2 4 5 3 2 2 2 4 6 5 3 6 9 4 9 11 7 3 7 5 4 4 6 7 6 6 6 4 4 6 4 4 5 5 6 7 7 5 4
3 3 5 4 7 5 4 3 2 3 4 3 3 3 3 2 3 4 3 2 3 6 6 8 4 1 4 7 7 8 9 9 10 9 3 5 3 2 1 2 2 8 8 7 6 6 5 5 7 5 6 7 6 5
5 4 3 4 3 3 4 4 4 4 4 2 2 3 2 2 3 1 2 2 3 4 6 5 8 7 3 4 4 5 11 10 4 9 8 8 5 4 8 10 10 9 8 8 6 6 5 6 7 7 7 6 7 5
5 5 5 5 3 5 5 4 5 4 2 4 5 2 1 2 2 2 1 3 3 4 5 7 6 6 6 5 6 7 5 2 4 9 12 14 13 11 11 11 11 11 10 11 11 12 12 11 10 12 10 11 10 12
5 6 4 3 2 2 3 4 1 3 4 4 2 2 2 2 1 2 1 1 2 3 3 3 4 3 4 5 6 9 8 7 8 12 11 12 12 11 11 11 10 6 10 11 11 12 11 11 10 10 10 9 11 11
7 5 6 6 6 6 5 5 6 4 3 1 2 2 2 2 2 2 2 1 3 3 3 5 5 2 5 6 9 9 10 9 8 9 12 12 12 11 11 9 8 11 7 8 9 9 8 8 8 8 9 7 7 6
6 5 6 7 7 2 2 1 2 2 2 2 3 3 2 1 2 2 1 1 1 3 3 1 4 2 6 8 9 9 10 11 14 17 15 10 9 10 10 9 8 7 7 8 7 6 6 5 3 3 4 7 11 11
7 4 3 3 4 5 5 5 5 3 5 5 5 4 3 1 3 3 1 3 3 5 5 6 7 8 6 7 8 10 9 10 11 10 9 9 8 7 7 7 7 8 7 7 8 8 9 8 10 11 13 12 11 11
5 6 7 5 6 8 9 8 8 9 11 11 10 10 9 6 6 7 6 4 8 7 6 7 7 7 8 8 8 7 8 8 11 11 8 5 5 6 6 6 7 6 7 7 7 8 10 10 11 12 13 13 14 11
5 5 9 10 7 6 8 9 8 8 7 7 6 3 2 3 4 4 7 3 5 5 5 6 6 6 7 6 6 6 8 8 7 7 10 7 7 7 7 6 5 7 8 9 9 8 10 9 8 9 7 9 9 10
2 3 5 7 7 6 5 7 4 2 2 3 3 3 4 4 3 2 3 5 5 5 5 5 5 6 7 8 6 5 8 7 8 6 6 6 5 5 5 6 7 9 10 9 8 7 9 10 10 11 10 9 10 9
Wind_Direction
159 164 172 178 187 200 260 346 359 358 356 349 343 342 340 339 337 343 285 280 253 277 290 295 331 339 339 11 355 330 331 350 25 139 199 243 238 260 159 176 179 176 173 240 30 47 275 219 10 97 184 87 108 75
159 167 176 188 208 230 268 302 320 339 343 343 336 333 330 330 328 345 281 337 332 239 283 305 287 267 253 253 298 322 255 324 320 347 10 326 333 297 154 332 41 42 133 170 142 208 217 216 183 148 126 131 132 147
162 170 181 195 218 234 272 288 304 332 336 336 332 327 321 320 316 310 300 324 300 274 276 248 264 259 225 221 211 225 309 52 16 253 292 276 326 34 341 337 63 336 41 317 54 7 218 210 222 121 128 155 200 100
165 173 187 200 214 235 259 274 300 321 330 329 322 318 315 314 306 293 280 303 292 279 273 284 11 307 302 273 208 207 233 313 237 260 260 265 312 360 306 252 141 199 85 172 23 328 343 69 105 111 78 46 85 68
164 175 178 184 218 242 232 261 301 316 322 323 314 312 313 316 304 285 262 249 248 271 309 305 307 268 256 259 221 212 192 213 277 304 258 264 270 32 300 34 28 229 160 162 194 214 144 166 337 196 144 120 115 86
160 170 178 190 217 213 234 277 308 315 322 321 313 308 317 315 317 285 265 197 216 315 275 286 316 285 286 246 199 220 201 186 171 259 270 267 264 117 203 245 111 49 347 129 167 145 142 217 227 239 130 100 126 73
162 168 172 182 212 249 268 282 304 316 320 315 310 309 311 302 285 245 300 324 324 324 250 264 252 229 229 248 221 175 204 216 180 236 230 251 293 42 223 254 254 193 180 150 159 154 142 354 158 107 134 109 89 83
161 164 166 174 219 250 286 300 311 318 318 312 308 310 305 293 274 275 254 240 206 256 264 266 264 287 197 211 216 184 213 198 239 212 280 238 290 225 233 222 273 304 286 9 165 167 171 165 145 182 101 92 77 70
168 172 180 204 263 297 295 301 311 317 315 308 310 304 280 212 228 229 224 165 185 270 295 250 266 276 211 208 177 225 172 222 228 208 227 234 231 237 207 214 228 246 218 4 330 15 175 171 202 130 112 101 95 85
177 182 193 237 272 294 302 305 314 319 312 308 285 218 223 201 203 132 126 172 206 220 221 253 287 257 5 341 242 195 194 214 219 230 204 222 240 244 249 226 223 228 219 211 197 252 303 326 163 129 123 121 115 105
171 195 218 252 280 293 304 310 328 330 302 222 228 244 325 232 173 222 191 206 190 218 205 213 247 265 320 285 282 213 221 203 224 238 204 224 242 233 231 242 236 212 200 202 186 183 146 141 132 125 117 112 108 103
192 211 235 263 282 293 303 309 335 319 289 318 294 278 266 231 210 224 201 199 222 207 239 193 208 222 257 274 253 265 230 230 214 141 275 243 245 223 212 237 231 230 229 193 176 188 177 142 138 122 116 108 104 92
207 226 247 266 277 286 295 301 316 318 296 258 210 223 224 259 222 211 203 195 203 265 190 192 206 189 203 221 264 273 289 217 95 157 242 235 277 278 277 259 220 177 164 171 193 214 154 128 122 124 120 115 103 91
221 238 256 264 272 281 284 292 316 338 306 250 228 202 220 212 225 229 222 241 246 229 263 258 232 180 179 241 233 231 187 38 313 236 238 267 253 263 268 220 219 221 188 177 189 187 136 132 130 96 103 105 101 102
226 251 264 263 256 256 254 268 290 269 260 264 280 242 213 246 292 249 219 244 234 262 258 240 257 206 178 223 238 264 181 175 190 221 222 255 282 281 290 280 238 199 174 182 93 83 59 87 85 50 82 107 111 111
229 272 238 231 238 224 218 255 238 218 251 259 241 260 281 277 270 353 349 3 356 296 254 267 259 266 224 206 216 215 258 254 282 131 12 33 1 338 27 36 23 357 68 115 106 105 107 183 153 167 126 126 126 116
202 266 56 186 207 191 181 236 229 225 235 245 251 245 255 270 287 338 324 355 336 332 306 248 190 209 317 250 235 239 260 241 250 283 104 123 143 230 354 40 55 57 53 320 103 114 170 166 157 124 129 122 138 188
259 86 90 64 234 190 185 218 244 259 250 240 250 261 258 272 334 304 324 8 349 344 320 9 319 345 255 269 292 254 262 249 215 185 187 171 159 180 137 129 123 123 191 217 163 177 150 126 122 137 142 177 193 281
181 127 73 17 349 287 211 194 178 253 249 254 252 261 266 275 232 228 216 101 283 283 278 273 232 234 281 11 357 342 345 340 315 150 97 100 125 54 31 351 286 245 187 166 124 127 119 123 112 101 102 88 94 60
212 286 283 285 321 278 268 200 193 240 271 264 249 246 254 261 279 289 209 172 202 247 268 248 286 14 345 329 335 331 337 340 38 57 56 25 30 30 41 12 334 263 124 96 71 72 76 73 59 80 72 61 38 54
220 242 220 197 237 209 283 299 259 248 279 272 292 313 279 290 284 267 255 233 226 209 213 329 323 344 326 302 35 324 336 5 335 21 143 99 57 76 61 46 340 14 5 73 69 68 75 95 100 75 62 60 19 10
357 350 202 187 245 205 240 220 248 293 265 266 296 258 263 277 279 259 216 254 26 28 17 305 298 312 304 312 302 50 48 28 38 43 35 185 106 120 102 108 28 9 308 306 75 76 72 78 53 51 69 58 69 69
13 195 251 224 223 201 254 228 238 227 261 274 289 259 241 269 359 340 74 65 43 327 273 255 264 346 282 295 360 29 37 43 140 0 257 158 100 114 125 137 200 184 210 39 72 78 81 53 46 38 52 65 65 41
109 246 240 210 201 241 228 229 193 270 263 256 266 281 327 4 36 14 42 351 292 303 321 322 302 58 322 44 43 44 30 53 54 249 200 99 104 217 260 200 44 64 69 67 57 52 46 47 44 49 45 54 39 30
237 238 225 225 228 257 242 207 201 227 241 230 252 260 273 152 90 59 346 299 294 346 347 4 73 79 334 9 72 55 54 52 352 45 33 97 112 81 64 57 56 47 32 38 34 39 32 37 28 21 17 49 27 0
236 230 206 206 199 212 210 232 211 218 208 234 225 202 275 102 96 98 300 304 327 339 4 23 29 58 40 26 27 29 13 57 61 54 54 50 47 57 60 52 42 22 21 37 44 42 42 44 34 30 32 40 32 25
241 238 216 215 244 199 262 264 238 216 218 242 175 138 84 87 97 117 231 296 326 338 347 5 357 0 10 351 29 23 3 6 51 74 73 67 55 51 58 57 43 40 41 43 46 43 34 30 29 22 16 27 36 24
238 196 207 194 202 200 238 192 199 209 187 216 151 60 50 67 88 173 139 140 92 49 359 329 312 348 69 52 45 34 13 7 62 89 79 62 55 47 38 35 35 40 57 44 38 38 27 22 22 12 11 21 9 18
229 187 206 246 219 209 284 59 77 133 208 211 94 97 126 50 0 347 325 179 94 26 348 341 332 14 76 71 58 49 45 37 41 52 55 53 39 32 25 19 6 15 24 22 26 39 29 11 353 347 360 29 35 57
51 99 155 81 73 55 12 17 41 44 54 76 88 101 74 50 292 266 215 112 115 80 69 64 52 52 61 82 80 68 53 53 44 42 47 37 22 18 11 359 10 18 16 14 11 2 13 11 25 35 41 44 36 29
135 83 79 74 71 78 81 64 68 77 95 104 97 97 95 100 65 41 39 52 78 65 59 65 62 51 55 48 32 60 80 69 67 54 46 33 24 12 351 7 18 10 19 4 10 24 32 32 41 39 38 36 35 25
107 126 102 110 116 123 99 80 93 96 108 106 103 99 115 88 75 28 1 49 83 87 73 70 64 52 58 62 52 48 76 79 64 50 39 38 33 9 358 23 6 28 14 28 19 30 34 35 49 42 34 35 36 27
116 114 127 126 137 149 165 127 118 123 113 96 44 6 28 66 75 55 31 9 28 40 63 80 90 87 82 79 43 68 90 97 106 100 90 74 55 10 355 13 15 30 26 32 2 26 34 21 48 37 17 29 40 20